Tracking 34352 objects as of 8-Jun-2026
HD Live streaming from Space Station
objects crossing your sky now

CZ-6A DEB

Track CZ-6A DEB now!
10-day predictions


NORAD ID: 54545
Int'l Code: 2022-151KV
Perigee: 819.5 km
Apogee: 896.8 km
Inclination: 98.8 °
Period: 102.0 minutes
Semi major axis: 7229 km
RCS: Unknown
Launch date: November 11, 2022
Source: People's Republic of China (PRC)
Launch site: Taiyaun Space Center, China (TSC)

Note: This is SATELLITE DEBRIS
Your satellite tracking list
Your tracking list is empty




NASA's NSSDC Master Catalog

Two Line Element Set (TLE):
1 54545U 22151KV  26159.21886477  .00000615  00000-0  35272-3 0  9994
2 54545  98.8325 161.7395 0053513 306.6223  53.0034 14.12443080183645
Source of the keplerian elements: AFSPC